• In Germany
  • List of Countries
  • For 7 days
  • Water Temperature
  • Satellite Maps
  • Weather Map
  • Weather Widgets
  • user-avatar
    Login

    Hourly Weather Wiktoria

    Today, 19 January, Friday

    Time Temperature Precipitation Wind Pressure Humidity
    00:00 +28°C° 0 mm 3 mps 748 mmHg 18%
    01:00 +27°C° 0 mm 2 mps 748 mmHg 19%
    02:00 +26°C° 0 mm 2 mps 748 mmHg 20%
    03:00 +25°C° 0 mm 2 mps 748 mmHg 21%
    04:00 +25°C° 0 mm 3 mps 748 mmHg 22%
    05:00 +25°C° 0 mm 3 mps 748 mmHg 23%
    06:00 +26°C° 0 mm 3 mps 749 mmHg 24%
    07:00 +27°C° 0 mm 3 mps 749 mmHg 25%
    08:00 +30°C° 0 mm 4 mps 749 mmHg 22%
    09:00 +34°C° 0 mm 4 mps 749 mmHg 19%
    10:00 +37°C° 0 mm 5 mps 749 mmHg 15%
    11:00 +40°C° 0 mm 4 mps 748 mmHg 13%
    12:00 +42°C° 0 mm 3 mps 748 mmHg 11%
    13:00 +44°C° 0 mm 3 mps 747 mmHg 8%
    14:00 +43°C° 0 mm 2 mps 747 mmHg 8%
    15:00 +43°C° 0 mm 2 mps 746 mmHg 7%
    16:00 +44°C° 0 mm 3 mps 746 mmHg 7%
    17:00 +42°C° 0 mm 3 mps 746 mmHg 9%
    18:00 +40°C° 0 mm 3 mps 746 mmHg 11%
    19:00 +38°C° 0 mm 3 mps 746 mmHg 13%
    20:00 +36°C° 0 mm 3 mps 746 mmHg 13%
    21:00 +34°C° 0 mm 3 mps 747 mmHg 14%
    22:00 +31°C° 0 mm 3 mps 747 mmHg 15%
    23:00 +30°C° 0 mm 3 mps 747 mmHg 17%

    Tomorrow, 20 January, Saturday

    Time Temperature Precipitation Wind Pressure Humidity
    00:00 +29°C° 0 mm 2 mps 747 mmHg 19%
    01:00 +28°C° 0 mm 2 mps 747 mmHg 22%
    02:00 +27°C° 0 mm 2 mps 747 mmHg 25%
    03:00 +26°C° 0 mm 2 mps 747 mmHg 29%
    04:00 +25°C° 0 mm 2 mps 747 mmHg 33%
    05:00 +25°C° 0 mm 3 mps 748 mmHg 32%
    06:00 +26°C° 0 mm 3 mps 748 mmHg 31%
    07:00 +27°C° 0 mm 3 mps 748 mmHg 31%
    08:00 +30°C° 0 mm 3 mps 748 mmHg 26%
    09:00 +35°C° 0 mm 4 mps 748 mmHg 22%
    10:00 +38°C° 0 mm 4 mps 748 mmHg 17%
    11:00 +41°C° 0 mm 4 mps 747 mmHg 14%
    12:00 +43°C° 0 mm 4 mps 747 mmHg 12%
    13:00 +45°C° 0 mm 4 mps 746 mmHg 9%
    14:00 +45°C° 0 mm 3 mps 746 mmHg 9%
    15:00 +45°C° 0 mm 3 mps 745 mmHg 9%
    16:00 +45°C° 0 mm 3 mps 745 mmHg 9%
    17:00 +43°C° 0 mm 3 mps 744 mmHg 13%
    18:00 +39°C° 0 mm 3 mps 744 mmHg 18%
    19:00 +37°C° 0 mm 4 mps 744 mmHg 22%
    20:00 +35°C° 0 mm 4 mps 745 mmHg 26%
    21:00 +33°C° 0 mm 4 mps 745 mmHg 31%
    22:00 +30°C° 0 mm 4 mps 745 mmHg 36%
    23:00 +29°C° 0 mm 4 mps 745 mmHg 41%

    Day after tomorrow, 21 January, Sunday

    Time Temperature Precipitation Wind Pressure Humidity
    00:00 +28°C° 0 mm 4 mps 745 mmHg 47%
    01:00 +27°C° 0 mm 4 mps 745 mmHg 52%
    02:00 +27°C° 0 mm 4 mps 744 mmHg 49%
    03:00 +27°C° 0 mm 3 mps 744 mmHg 45%
    04:00 +27°C° 0 mm 3 mps 744 mmHg 42%
    05:00 +28°C° 0 mm 4 mps 744 mmHg 37%
    06:00 +29°C° 0 mm 4 mps 745 mmHg 31%
    07:00 +29°C° 0 mm 4 mps 745 mmHg 25%
    08:00 +33°C° 0 mm 5 mps 745 mmHg 22%
    09:00 +35°C° 0 mm 5 mps 745 mmHg 18%
    10:00 +39°C° 0 mm 5 mps 744 mmHg 15%
    11:00 +41°C° 0 mm 5 mps 744 mmHg 13%
    12:00 +43°C° 0 mm 5 mps 743 mmHg 11%
    13:00 +46°C° 0 mm 5 mps 742 mmHg 9%
    14:00 +47°C° 0 mm 5 mps 742 mmHg 8%
    15:00 +47°C° 0 mm 6 mps 741 mmHg 7%
    16:00 +48°C° 0 mm 6 mps 740 mmHg 6%
    17:00 +45°C° 0 mm 6 mps 740 mmHg 13%
    18:00 +40°C° 0 mm 6 mps 741 mmHg 20%
    19:00 +36°C° 0 mm 7 mps 741 mmHg 27%
    20:00 +35°C° 0 mm 6 mps 741 mmHg 30%
    21:00 +33°C° 0 mm 6 mps 742 mmHg 33%
    22:00 +32°C° 0 mm 5 mps 742 mmHg 36%
    23:00 +30°C° 0.1 mm 5 mps 742 mmHg 41%

    22 January, Monday

    Time Temperature Precipitation Wind Pressure Humidity
    00:00 +29°C° 0.1 mm 4 mps 742 mmHg 45%
    01:00 +28°C° 0.1 mm 3 mps 742 mmHg 50%
    02:00 +27°C° 0.1 mm 3 mps 742 mmHg 54%
    03:00 +26°C° 0.1 mm 3 mps 742 mmHg 59%
    04:00 +25°C° 0.1 mm 3 mps 741 mmHg 63%
    05:00 +26°C° 0.2 mm 3 mps 742 mmHg 63%
    06:00 +26°C° 0.2 mm 2 mps 743 mmHg 63%
    07:00 +26°C° 0.2 mm 2 mps 743 mmHg 63%
    08:00 +28°C° 0 mm 2 mps 743 mmHg 56%
    09:00 +30°C° 0 mm 2 mps 744 mmHg 49%
    10:00 +32°C° 0 mm 2 mps 744 mmHg 42%
    11:00 +34°C° 0 mm 2 mps 743 mmHg 37%
    12:00 +36°C° 0 mm 2 mps 743 mmHg 32%
    13:00 +38°C° 0 mm 2 mps 742 mmHg 27%
    14:00 +38°C° 0 mm 3 mps 742 mmHg 26%
    15:00 +39°C° 0 mm 3 mps 742 mmHg 25%
    16:00 +39°C° 0 mm 3 mps 741 mmHg 24%
    17:00 +38°C° 0 mm 3 mps 741 mmHg 28%
    18:00 +36°C° 0 mm 3 mps 742 mmHg 32%
    19:00 +34°C° 0 mm 4 mps 742 mmHg 36%
    20:00 +30°C° 0.3 mm 4 mps 742 mmHg 45%
    21:00 +28°C° 0.3 mm 5 mps 743 mmHg 54%
    22:00 +25°C° 0.3 mm 5 mps 743 mmHg 63%
    23:00 +23°C° 0.2 mm 5 mps 743 mmHg 66%

    23 January, Tuesday

    Time Temperature Precipitation Wind Pressure Humidity
    00:00 +22°C° 0.2 mm 5 mps 743 mmHg 70%
    01:00 +21°C° 0.2 mm 5 mps 743 mmHg 74%
    02:00 +21°C° 0.1 mm 5 mps 743 mmHg 75%
    03:00 +20°C° 0.1 mm 5 mps 743 mmHg 77%
    04:00 +20°C° 0.1 mm 5 mps 743 mmHg 78%
    05:00 +20°C° 0 mm 5 mps 744 mmHg 76%
    06:00 +20°C° 0 mm 5 mps 744 mmHg 74%
    07:00 +21°C° 0 mm 4 mps 744 mmHg 73%
    08:00 +25°C° 0 mm 4 mps 744 mmHg 63%
    09:00 +27°C° 0 mm 4 mps 744 mmHg 53%
    10:00 +30°C° 0 mm 3 mps 744 mmHg 43%
    11:00 +33°C° 0 mm 4 mps 744 mmHg 37%
    12:00 +35°C° 0 mm 4 mps 743 mmHg 32%
    13:00 +37°C° 0 mm 5 mps 743 mmHg 27%
    14:00 +36°C° 0 mm 5 mps 743 mmHg 26%
    15:00 +36°C° 0 mm 6 mps 742 mmHg 25%
    16:00 +36°C° 0 mm 7 mps 742 mmHg 24%
    17:00 +34°C° 0 mm 7 mps 742 mmHg 29%
    18:00 +30°C° 0 mm 7 mps 742 mmHg 35%
    19:00 +28°C° 0 mm 7 mps 743 mmHg 40%
    20:00 +26°C° 0 mm 7 mps 743 mmHg 46%
    21:00 +24°C° 0 mm 6 mps 744 mmHg 52%
    22:00 +22°C° 0 mm 6 mps 744 mmHg 58%
    23:00 +21°C° 0 mm 5 mps 744 mmHg 62%

    24 January, Wednesday

    Time Temperature Precipitation Wind Pressure Humidity
    00:00 +20°C° 0 mm 4 mps 744 mmHg 67%
    01:00 +19°C° 0 mm 4 mps 744 mmHg 71%
    02:00 +19°C° 0 mm 4 mps 744 mmHg 73%
    03:00 +19°C° 0 mm 4 mps 744 mmHg 76%
    04:00 +18°C° 0 mm 4 mps 744 mmHg 78%
    05:00 +19°C° 0 mm 4 mps 744 mmHg 76%
    06:00 +19°C° 0 mm 4 mps 744 mmHg 73%
    07:00 +20°C° 0 mm 4 mps 745 mmHg 71%
    08:00 +23°C° 0 mm 4 mps 744 mmHg 62%
    09:00 +27°C° 0 mm 3 mps 744 mmHg 53%
    10:00 +30°C° 0 mm 3 mps 744 mmHg 44%
    11:00 +33°C° 0 mm 3 mps 744 mmHg 37%
    12:00 +35°C° 0 mm 3 mps 743 mmHg 30%
    13:00 +37°C° 0 mm 3 mps 743 mmHg 23%
    14:00 +37°C° 0 mm 3 mps 743 mmHg 22%
    15:00 +38°C° 0 mm 4 mps 742 mmHg 20%
    16:00 +38°C° 0 mm 4 mps 742 mmHg 19%
    17:00 +36°C° 0 mm 5 mps 742 mmHg 26%
    18:00 +33°C° 0 mm 6 mps 742 mmHg 33%
    19:00 +30°C° 0 mm 7 mps 742 mmHg 39%
    20:00 +28°C° 0 mm 7 mps 743 mmHg 45%
    21:00 +26°C° 0 mm 6 mps 743 mmHg 51%
    22:00 +23°C° 0 mm 6 mps 744 mmHg 57%
    23:00 +22°C° 0 mm 6 mps 744 mmHg 60%
    Show more